Temperature
4 5 5 4 5 5 4 5 6 7 8 9 9 9 9 8 8 8 8 7 7 7 8 8 9 9 10 11 11 12 12 12 13 13 13 12 12 12 12 12 12 12 12 12
3 4 4 4 5 5 5 5 5 6 7 8 8 8 8 8 7 7 7 7 6 6 7 7 8 8 9 10 10 11 11 12 12 12 12 12 12 12 12 12 12 12 12 12
4 4 3 4 5 5 5 6 6 6 7 8 7 7 7 7 6 6 6 6 6 6 6 6 7 8 8 9 9 10 10 11 11 12 12 12 12 12 11 12 12 11 11 11
3 3 2 6 6 6 6 6 6 6 7 7 7 7 6 6 6 6 6 6 6 6 6 6 6 7 7 8 8 9 9 10 11 11 11 11 11 11 11 11 11 11 11 11
2 3 4 5 6 5 5 5 6 6 6 6 6 6 6 5 5 5 5 5 5 5 6 6 6 6 7 7 8 8 9 9 10 10 10 11 11 11 11 11 11 11 11 11
2 2 3 6 5 5 5 5 5 5 5 5 5 5 6 5 4 4 5 5 5 5 5 6 6 6 6 7 7 8 8 9 10 10 10 10 10 10 10 10 10 10 10 11
2 2 4 5 5 4 4 5 5 5 5 4 5 5 5 4 4 4 4 4 5 5 5 5 5 5 6 6 7 7 8 8 9 9 10 10 10 10 10 10 10 10 10 10
2 1 3 5 4 4 4 5 4 4 4 4 4 4 3 3 3 4 4 4 4 5 5 5 5 5 5 6 6 7 7 8 8 9 9 9 9 9 9 9 9 9 9 9
3 4 5 4 4 4 4 4 4 4 3 3 3 3 3 3 3 3 3 4 4 4 4 5 5 5 5 5 6 7 7 8 8 8 9 9 8 9 9 9 9 9 9 9
3 4 4 4 3 3 3 3 3 3 3 3 3 3 3 3 3 3 3 3 3 4 4 4 4 5 5 5 6 6 7 7 8 8 8 8 8 8 8 8 8 8 9 9
2 4 4 3 3 3 3 3 2 2 2 2 2 2 2 2 2 2 2 3 3 3 3 4 4 4 4 5 5 5 6 7 7 7 7 8 8 8 8 8 8 8 8 9
3 4 4 4 3 3 2 2 2 2 2 1 1 1 1 2 2 2 2 2 2 2 3 3 3 4 4 4 5 5 5 6 6 7 7 7 7 7 7 8 8 8 8 8
3 3 3 3 2 2 2 1 1 1 1 1 1 1 1 1 1 1 1 2 2 2 2 2 3 3 3 4 4 5 5 5 6 6 6 6 7 7 7 7 7 7 7 7
2 2 2 2 1 1 1 1 1 0 0 0 0 0 0 0 1 1 1 1 1 1 2 2 2 3 3 3 4 4 5 5 5 6 6 6 6 6 6 6 6 6 6 6
1 1 1 1 0 0 0 -0 -0 -0 -0 -0 -0 -0 -0 -0 -0 0 0 1 1 1 1 1 2 2 2 3 3 4 4 4 5 5 5 6 6 6 6 6 6 6 6 6
-0 -0 -0 -0 -1 -1 -1 -1 -1 -1 -1 -1 -1 -1 -1 -1 -1 -0 -0 -0 0 0 1 1 1 2 2 2 2 3 3 4 4 4 4 5 5 5 5 5 5 5 5 5
-1 -1 -1 -1 -1 -1 -2 -2 -2 -2 -2 -2 -1 -1 -1 -1 -1 -1 -1 -1 -1 -0 0 0 1 1 1 1 2 2 3 3 3 4 4 4 4 5 5 5 5 5 5 5
-3 -3 -3 -3 -3 -3 -3 -3 -3 -3 -2 -2 -2 -2 -2 -2 -2 -2 -2 -1 -1 -1 -0 -0 0 0 1 1 1 1 2 2 2 3 3 3 4 4 4 4 4 4 4 4
-3 -3 -3 -4 -4 -4 -4 -4 -3 -3 -3 -3 -3 -3 -3 -3 -3 -3 -2 -2 -2 -2 -1 -0 -0 -0 0 0 1 1 1 1 2 2 2 3 3 3 3 4 3 4 4 4
-3 -4 -4 -4 -4 -4 -4 -4 -4 -4 -4 -4 -4 -4 -3 -3 -3 -3 -3 -3 -2 -2 -1 -1 -1 -1 -0 0 0 0 1 1 1 2 2 2 2 2 3 3 3 3 3 3
-4 -4 -4 -4 -4 -4 -5 -4 -4 -4 -4 -4 -4 -4 -4 -4 -4 -4 -4 -3 -2 -2 -2 -2 -1 -1 -1 -1 -0 -0 0 0 1 1 1 2 2 2 2 2 3 3 3 3
-5 -5 -5 -5 -5 -5 -5 -5 -5 -5 -5 -5 -5 -5 -4 -4 -4 -4 -4 -3 -3 -3 -3 -2 -2 -2 -2 -1 -1 -1 -0 -0 0 1 1 1 1 1 1 2 2 2 2 2
-5 -5 -5 -5 -5 -5 -5 -5 -5 -5 -5 -5 -5 -5 -5 -5 -5 -5 -4 -3 -3 -3 -3 -3 -2 -2 -2 -2 -1 -1 -1 -1 -0 -0 0 1 1 1 1 1 2 2 2 2
-6 -6 -6 -6 -6 -6 -6 -6 -6 -6 -6 -6 -5 -5 -5 -5 -5 -4 -4 -4 -4 -4 -3 -3 -3 -3 -2 -2 -2 -2 -1 -1 -1 -1 -0 -0 0 0 1 1 1 1 1 1
-6 -6 -6 -6 -7 -7 -7 -7 -7 -6 -6 -6 -6 -6 -6 -6 -6 -5 -5 -4 -4 -4 -4 -3 -3 -3 -3 -2 -2 -2 -2 -2 -2 -1 -1 -0 -0 -0 0 0 1 1 0 0
-7 -7 -7 -7 -7 -7 -7 -8 -8 -7 -7 -7 -7 -7 -6 -6 -6 -6 -5 -5 -5 -4 -4 -4 -4 -3 -3 -3 -3 -2 -2 -2 -2 -2 -1 -1 -1 -0 -0 -0 -0 -0 -0 -0
-7 -8 -8 -8 -8 -8 -8 -8 -8 -8 -8 -8 -8 -8 -7 -7 -7 -7 -6 -6 -5 -5 -5 -5 -4 -4 -4 -3 -3 -3 -3 -3 -2 -2 -2 -1 -1 -1 -1 -1 -1 -1 -1 -1
Wind_Speed
15 14 12 13 14 14 15 16 15 18 20 19 17 17 16 15 14 14 13 12 12 11 11 9 8 7 6 6 6 7 10 12 15 15 16 17 17 18 18 18 18 17 17 17
12 13 14 17 18 18 18 18 20 21 22 18 15 13 13 13 12 13 13 13 12 12 11 10 9 8 7 6 6 7 9 11 12 12 13 15 16 16 17 17 17 17 17 17
10 10 11 14 16 18 17 16 16 19 18 14 13 13 13 12 12 12 13 12 12 11 11 11 10 9 8 7 6 7 8 9 10 11 12 13 13 15 16 16 16 17 17 17
7 7 12 9 4 9 14 16 15 16 15 14 14 14 13 11 11 12 12 12 12 11 11 11 10 9 8 6 6 6 7 8 9 10 12 12 13 14 14 14 14 15 16 17
5 9 13 12 8 7 9 12 10 12 13 13 12 12 10 7 8 10 11 12 11 11 11 10 9 8 7 6 5 5 6 7 8 10 11 12 13 13 13 12 13 13 13 15
8 9 9 7 3 4 6 10 6 7 9 9 8 8 8 8 10 12 12 11 11 11 11 10 8 7 6 6 5 5 6 7 8 9 11 11 12 12 11 11 11 10 11 13
15 12 11 9 3 3 7 6 4 6 7 8 8 9 11 12 12 12 12 12 11 11 10 9 8 6 6 6 7 6 6 6 7 8 10 10 10 10 10 10 10 10 10 11
10 11 12 5 5 7 7 5 5 7 8 9 11 12 12 12 12 12 12 11 10 10 9 8 7 7 7 7 7 6 5 5 6 7 7 7 9 9 10 10 10 10 9 9
10 11 8 6 9 9 8 9 10 10 10 10 12 13 13 13 12 12 12 11 10 10 10 9 7 7 8 8 7 6 5 5 6 6 7 8 9 9 9 10 9 9 9 9
11 15 15 13 13 12 12 12 12 12 12 12 13 13 13 13 12 12 11 11 10 10 10 10 9 8 8 8 7 6 6 5 5 5 6 7 7 8 8 9 9 9 10 10
17 17 15 15 14 15 14 14 13 12 13 13 13 14 13 13 12 12 11 10 10 10 10 11 10 9 9 8 7 7 6 5 5 5 6 6 6 7 8 8 9 9 10 10
15 15 13 15 14 13 14 14 14 13 14 13 13 14 14 13 12 11 11 10 10 10 11 11 11 10 9 7 7 7 6 5 4 4 5 5 6 4 3 5 7 8 10 10
20 19 18 18 17 15 14 14 14 14 14 14 13 13 13 13 11 11 11 11 11 11 11 11 11 11 9 8 7 7 6 5 4 4 5 6 6 6 5 3 5 7 10 11
18 17 18 17 15 14 14 15 14 14 14 13 13 13 12 12 12 11 11 11 11 11 10 10 11 11 9 8 7 7 6 6 5 5 5 6 6 6 6 6 5 4 6 11
16 15 15 14 14 13 12 12 12 13 13 12 11 11 11 11 12 11 10 10 10 10 10 10 10 10 9 8 7 6 6 5 5 5 5 5 6 6 6 6 6 6 5 7
11 11 12 13 13 13 12 12 12 12 12 11 11 10 11 11 11 10 10 9 9 10 10 9 9 9 9 8 7 6 5 6 5 5 5 5 6 6 7 7 7 7 8 8
10 11 11 11 12 12 11 10 10 11 10 11 11 10 10 10 10 10 10 9 9 10 10 9 9 9 8 8 7 6 5 5 5 5 5 6 6 7 7 7 7 7 7 9
9 9 9 10 10 10 9 9 9 9 10 10 10 10 9 10 11 10 10 9 9 10 10 9 8 8 8 8 6 5 5 5 5 5 5 6 6 6 7 7 8 8 7 8
5 7 7 8 8 8 8 8 8 9 9 9 9 9 9 10 10 10 9 9 9 10 9 8 9 9 8 8 7 6 5 5 5 5 5 6 6 6 7 8 8 8 8 8
4 4 5 6 6 6 7 7 8 8 8 8 9 9 9 9 9 9 9 9 9 8 9 9 9 8 8 7 7 5 6 6 6 5 5 6 6 7 7 8 8 8 8 8
4 4 4 5 5 6 6 7 7 8 8 8 8 9 9 9 9 8 8 9 8 8 9 10 8 7 6 6 6 5 6 5 6 6 6 6 6 7 7 8 8 8 8 8
4 5 5 5 6 6 6 6 7 8 8 8 8 8 9 9 9 8 9 8 8 9 8 7 6 7 7 6 5 5 5 5 5 5 6 6 7 7 7 8 8 8 8 8
5 5 6 6 7 7 8 7 7 7 8 8 8 8 9 9 7 7 8 6 6 9 7 6 7 8 8 5 4 4 5 5 5 6 6 6 7 7 7 8 8 8 8 8
5 5 6 6 6 7 8 7 7 7 7 8 8 8 8 7 7 6 7 9 9 9 7 7 8 8 6 4 3 3 4 4 4 5 5 6 6 6 7 8 8 7 8 9
5 6 6 6 6 6 7 7 7 7 7 6 7 7 6 6 6 7 7 7 8 8 6 6 6 5 3 3 3 3 3 3 4 4 5 5 6 7 7 7 8 8 8 8
5 5 5 6 6 6 5 5 5 5 6 6 6 6 6 5 6 6 5 6 6 6 5 4 4 3 2 2 2 2 3 3 4 4 5 5 6 7 7 7 8 7 7 8
5 5 5 5 5 4 4 4 5 5 5 6 6 6 6 5 5 5 5 4 4 3 3 3 3 2 2 1 1 1 1 2 3 4 5 5 5 6 7 8 7 7 7 8
Wind_Direction
263 270 269 268 265 255 245 247 253 264 268 276 288 297 302 306 312 316 319 325 326 323 320 315 309 292 276 264 250 231 224 219 215 212 208 206 206 205 203 202 201 200 199 199
264 264 266 266 264 259 254 254 256 264 270 280 287 295 297 301 307 310 313 318 322 321 317 314 311 304 289 275 260 241 230 223 215 210 206 205 204 202 202 200 199 199 200 199
265 273 276 262 256 251 249 249 252 258 269 284 288 290 292 296 299 303 308 313 316 316 315 313 310 305 295 282 267 249 237 228 214 207 205 203 200 199 199 200 198 199 200 200
268 266 251 258 258 251 252 256 254 260 271 280 285 288 287 286 292 298 307 311 313 312 313 310 306 302 297 287 268 251 240 231 216 206 205 201 197 198 198 198 197 199 200 200
246 256 268 270 254 240 247 262 261 265 277 283 289 287 276 288 296 295 300 303 305 308 308 305 302 301 299 289 275 258 245 235 222 210 204 199 198 198 196 195 196 198 198 198
236 249 258 269 239 234 244 262 263 271 282 291 291 281 289 311 304 302 302 301 302 307 307 303 300 297 293 290 280 267 255 244 228 214 205 202 200 197 193 192 193 191 194 197
235 246 261 268 239 199 234 265 285 274 282 287 276 275 295 302 301 303 302 301 305 307 303 301 300 296 289 287 282 283 274 255 233 216 207 202 198 194 188 185 184 187 190 193
226 238 250 227 191 220 253 284 278 277 281 282 283 288 295 299 300 304 304 302 306 307 305 305 303 296 290 288 292 288 271 250 232 217 205 197 192 189 184 181 182 184 185 186
221 238 264 233 231 247 266 269 275 279 281 283 284 288 293 295 297 300 301 302 305 304 303 303 302 298 292 296 299 290 271 249 230 212 200 194 189 185 183 183 185 186 184 184
248 253 259 261 258 258 263 267 275 278 279 280 281 285 290 293 294 297 300 301 303 303 301 302 304 301 295 296 294 284 272 256 226 208 198 191 188 186 187 189 189 188 185 183
249 258 267 260 257 262 267 268 272 275 275 276 278 280 284 287 290 292 294 297 299 296 296 297 302 301 299 297 291 283 271 254 224 205 196 192 193 194 193 198 196 192 188 182
250 256 259 267 267 266 265 267 271 273 274 273 272 276 280 282 286 288 287 291 292 292 292 294 297 297 296 292 282 278 272 255 226 207 197 190 184 181 184 190 182 187 182 179
255 265 267 271 274 271 269 271 273 272 272 275 274 274 278 279 282 284 285 286 285 287 288 291 294 295 296 292 283 273 267 255 231 214 202 192 185 181 177 149 147 165 169 169
254 261 265 265 269 272 272 274 276 274 273 273 275 275 275 278 280 279 281 283 285 287 287 287 288 291 297 292 282 273 269 250 231 218 206 195 189 185 181 178 176 168 163 164
254 254 258 268 272 274 274 273 272 271 273 274 272 270 272 276 279 280 282 283 283 283 283 285 284 288 296 292 281 273 263 246 230 219 208 196 185 179 176 178 175 165 152 155
261 262 263 265 270 273 273 270 270 273 275 275 274 272 273 274 277 281 281 280 279 279 283 284 283 288 296 291 284 276 264 245 231 219 206 194 183 179 177 177 174 171 171 166
262 264 266 268 273 275 274 272 271 273 275 276 278 280 279 278 278 278 278 278 276 277 280 281 283 289 289 284 278 275 270 254 227 215 206 197 188 184 181 180 180 177 175 172
258 263 267 269 273 277 279 279 277 278 280 282 285 282 278 276 276 280 284 285 284 282 279 277 279 285 282 277 274 269 262 254 238 219 206 199 192 186 182 179 177 174 167 165
270 270 273 272 273 275 278 281 283 284 286 287 284 280 279 278 279 283 285 282 280 281 284 284 282 280 277 272 268 260 251 244 235 221 207 195 190 185 181 178 177 174 168 167
288 286 285 284 283 280 280 283 286 285 286 288 284 281 281 282 285 286 284 277 271 274 285 290 286 277 272 267 261 253 246 237 225 214 203 195 190 185 182 178 176 174 172 171
301 300 298 296 294 290 286 288 289 287 290 289 283 282 284 286 286 284 281 281 283 285 286 285 279 275 272 265 257 249 241 232 222 211 202 194 188 185 181 177 173 171 170 167
294 294 295 295 292 292 294 294 289 289 291 290 286 285 286 287 288 283 273 271 285 292 291 282 278 277 276 269 254 245 236 229 222 210 200 192 186 183 178 173 171 169 166 165
287 288 291 291 291 292 293 289 288 288 288 290 288 288 286 285 285 283 286 284 288 292 291 282 282 281 276 264 251 239 230 222 216 207 198 189 183 178 173 171 170 167 165 164
288 290 292 294 292 288 289 292 293 290 288 288 284 286 288 289 288 280 281 290 296 296 289 286 285 281 275 262 249 237 227 218 209 202 191 181 174 171 169 166 164 162 162 161
292 292 291 291 290 287 290 295 296 294 294 293 292 292 289 284 284 292 293 294 299 300 295 294 293 287 277 261 243 228 220 215 200 188 179 171 166 164 162 160 158 157 158 159
296 292 288 284 283 286 288 290 291 296 299 300 303 306 305 301 296 295 295 298 301 304 305 301 300 298 284 266 242 218 207 198 188 176 164 159 156 155 154 153 150 154 155 154
297 294 292 294 295 294 292 289 290 295 299 301 304 308 310 309 306 306 305 305 308 312 317 318 318 318 309 296 268 197 172 164 159 151 148 147 148 149 149 148 150 149 150 151
Height
1427 1424 1424 1422 1419 1418 1418 1412 1407 1394 1390 1388 1388 1388 1387 1385 1382 1380 1378 1376 1373 1371 1368 1366 1364 1363 1363 1363 1364 1365 1367 1370 1373 1377 1382 1386 1391 1396 1401 1405 1410 1414 1419 1423
1425 1421 1420 1417 1412 1410 1408 1406 1401 1396 1390 1388 1388 1387 1385 1383 1381 1378 1376 1374 1371 1368 1366 1363 1361 1360 1359 1358 1359 1360 1361 1363 1366 1370 1374 1378 1383 1388 1393 1398 1402 1407 1411 1415
1419 1416 1417 1408 1400 1400 1398 1395 1395 1391 1386 1386 1385 1384 1382 1380 1379 1376 1374 1372 1369 1366 1363 1361 1358 1356 1355 1354 1354 1355 1356 1357 1360 1363 1367 1371 1376 1380 1385 1390 1394 1399 1403 1407
1419 1419 1415 1393 1393 1393 1391 1388 1387 1385 1383 1384 1383 1381 1379 1378 1376 1374 1372 1369 1367 1363 1360 1358 1355 1353 1351 1350 1350 1350 1350 1352 1354 1358 1361 1365 1369 1373 1378 1382 1387 1392 1396 1400
1418 1411 1397 1390 1389 1391 1390 1385 1384 1382 1380 1380 1379 1377 1374 1374 1373 1371 1369 1367 1364 1361 1357 1354 1352 1350 1348 1347 1346 1345 1345 1346 1349 1352 1355 1358 1362 1366 1371 1375 1380 1385 1389 1393
1414 1410 1396 1382 1385 1386 1387 1382 1381 1380 1378 1377 1376 1373 1369 1370 1369 1367 1365 1362 1360 1357 1354 1351 1349 1347 1345 1344 1343 1342 1342 1342 1344 1347 1350 1353 1356 1360 1365 1369 1374 1378 1383 1387
1407 1402 1387 1381 1383 1385 1386 1378 1378 1377 1377 1376 1374 1373 1371 1368 1365 1363 1360 1358 1355 1353 1350 1348 1346 1344 1342 1341 1340 1339 1339 1339 1341 1342 1345 1348 1352 1355 1359 1363 1368 1372 1376 1381
1399 1397 1386 1378 1381 1380 1376 1375 1375 1375 1374 1373 1371 1369 1367 1364 1361 1359 1356 1354 1351 1349 1347 1345 1343 1341 1338 1337 1337 1336 1335 1336 1337 1338 1341 1343 1347 1350 1354 1358 1362 1366 1370 1374
1384 1379 1373 1375 1375 1374 1374 1373 1372 1371 1370 1369 1367 1365 1362 1360 1358 1355 1353 1350 1348 1346 1343 1341 1340 1338 1335 1334 1333 1332 1332 1332 1333 1334 1336 1339 1342 1345 1349 1353 1356 1359 1363 1367
1378 1371 1371 1371 1370 1370 1370 1369 1368 1367 1366 1365 1363 1360 1358 1356 1353 1351 1349 1347 1345 1343 1340 1338 1336 1334 1332 1331 1330 1329 1328 1328 1329 1330 1332 1335 1338 1341 1344 1346 1349 1353 1356 1361
1370 1366 1366 1365 1365 1365 1365 1364 1363 1362 1361 1360 1358 1355 1353 1351 1349 1347 1345 1343 1341 1339 1336 1334 1332 1330 1329 1327 1326 1325 1324 1324 1325 1326 1328 1330 1333 1336 1339 1341 1344 1347 1350 1354
1360 1359 1360 1358 1359 1359 1359 1358 1357 1356 1354 1353 1352 1350 1348 1346 1344 1342 1340 1338 1336 1335 1332 1330 1328 1326 1325 1324 1323 1321 1320 1320 1320 1322 1324 1326 1328 1331 1334 1337 1340 1344 1347 1351
1354 1354 1354 1353 1353 1353 1352 1351 1351 1350 1348 1347 1345 1344 1342 1340 1338 1336 1334 1333 1332 1330 1328 1326 1324 1322 1321 1319 1318 1317 1317 1316 1317 1318 1320 1322 1324 1326 1328 1332 1336 1339 1343 1347
1349 1349 1347 1346 1346 1346 1345 1344 1344 1343 1342 1340 1339 1337 1336 1334 1332 1331 1329 1327 1326 1324 1322 1321 1319 1317 1316 1315 1314 1313 1312 1313 1313 1314 1316 1317 1320 1322 1324 1327 1330 1334 1338 1343
1341 1341 1341 1340 1340 1339 1338 1338 1337 1335 1334 1333 1332 1331 1329 1328 1326 1325 1323 1322 1320 1318 1317 1315 1314 1312 1312 1310 1309 1308 1308 1308 1309 1310 1311 1313 1316 1318 1321 1324 1327 1330 1334 1339
1335 1335 1335 1334 1333 1332 1332 1331 1330 1329 1328 1327 1325 1324 1323 1322 1320 1319 1317 1316 1314 1313 1311 1310 1308 1307 1306 1305 1304 1303 1303 1304 1305 1306 1307 1309 1311 1313 1316 1319 1322 1325 1329 1333
1330 1329 1329 1328 1327 1327 1326 1325 1324 1323 1322 1321 1319 1318 1317 1316 1314 1313 1311 1310 1309 1307 1306 1304 1303 1302 1301 1300 1299 1298 1298 1299 1300 1301 1302 1304 1306 1309 1312 1315 1318 1321 1325 1329
1324 1324 1324 1323 1322 1322 1321 1320 1319 1317 1316 1315 1314 1312 1311 1310 1308 1307 1305 1304 1302 1301 1300 1299 1298 1297 1296 1295 1294 1294 1294 1294 1295 1296 1298 1300 1302 1305 1308 1311 1314 1318 1322 1326
1319 1319 1319 1318 1318 1317 1316 1315 1313 1312 1311 1309 1308 1307 1305 1304 1303 1301 1300 1298 1296 1294 1294 1293 1292 1291 1290 1290 1290 1289 1289 1290 1291 1292 1294 1296 1298 1301 1303 1307 1310 1314 1317 1322
1315 1315 1314 1313 1313 1312 1311 1310 1308 1307 1306 1304 1303 1301 1300 1298 1297 1296 1294 1292 1291 1289 1288 1287 1286 1286 1285 1284 1284 1284 1284 1285 1286 1287 1289 1291 1293 1296 1299 1302 1306 1310 1314 1318
1312 1311 1310 1309 1309 1308 1307 1305 1304 1302 1301 1299 1298 1296 1294 1293 1292 1290 1289 1286 1285 1284 1283 1282 1281 1280 1279 1279 1279 1279 1279 1280 1281 1282 1284 1287 1289 1292 1295 1298 1301 1305 1310 1314
1309 1308 1307 1306 1305 1303 1302 1301 1299 1298 1296 1294 1293 1291 1290 1288 1286 1285 1283 1282 1280 1279 1277 1276 1275 1274 1274 1274 1274 1274 1274 1275 1276 1278 1280 1283 1285 1288 1291 1294 1298 1302 1306 1310
1306 1305 1303 1302 1301 1299 1297 1296 1295 1293 1291 1290 1288 1286 1285 1283 1281 1279 1277 1276 1275 1273 1272 1271 1270 1269 1269 1269 1269 1269 1270 1271 1272 1274 1276 1279 1281 1284 1287 1290 1294 1298 1302 1306
1302 1300 1299 1298 1296 1294 1293 1291 1290 1288 1287 1285 1284 1282 1280 1278 1276 1274 1273 1271 1270 1269 1267 1266 1265 1265 1264 1264 1265 1265 1266 1267 1269 1271 1273 1275 1278 1281 1284 1287 1291 1295 1299 1303
1298 1296 1295 1293 1292 1290 1288 1287 1285 1283 1282 1280 1279 1277 1275 1274 1271 1269 1268 1267 1265 1264 1263 1262 1262 1261 1261 1261 1261 1262 1262 1264 1265 1267 1269 1271 1274 1277 1281 1284 1288 1292 1296 1300
1294 1293 1291 1289 1288 1286 1284 1283 1281 1279 1278 1276 1274 1273 1271 1269 1267 1265 1264 1263 1261 1260 1259 1258 1258 1257 1257 1257 1258 1258 1259 1260 1262 1264 1266 1269 1272 1275 1278 1282 1286 1290 1294 1298
1291 1289 1287 1285 1284 1282 1281 1280 1278 1276 1275 1273 1271 1269 1267 1265 1263 1262 1260 1259 1258 1257 1256 1256 1255 1254 1254 1255 1255 1256 1257 1258 1260 1262 1264 1267 1270 1273 1277 1280 1284 1288 1292 1296